Find Starlink 37241

NORAD ID: 68528 Int'l Des: 2026-068 Owner: SPXS Country: US Constellation: starlink operational
LEOCIRCULAR

Live Position

Loading 3D Globe...

About Starlink 37241

Description loading...

Upcoming Passes

Passes for default location (London). Set your location on the main map for personalized predictions.

Altitude History

Loading altitude history...

Two-Line Element Set

1 68528U 26068W 26110.50260400 .00301716 00000-0 14744-2 0 9998
2 68528 53.1575 299.5862 0000333 69.4347 290.6712 15.80944427 3284
Epoch: Apr 20, 2026 • Age: 54 hours

Current Status

Altitude 331.6 km
Velocity 7.71 km/s
Sub-Earth Point -25.61°S, 7.88°E
Launch Date Mar 30, 2026
Age 22 days
Type internet

Technical Details

Classification Payload
Mass 575.00 kg
Dry Mass 530.00 kg
Total Mass 575.00 kg
Length 0.30 m
Diameter 4.10 m
Span 29.00 m
Shape Box + pan
Manufacturer SPXS
Bus Type Starlink V2MO
Phase Status In Orbit
Owner/State SPXS/US

Most Searched